KD5OH Weather Reports


time (UTC)temp
C
wind
direction
speed
KPH
gust
KPH
rain 1hr
cm
rain 24hr
cm
rain mn
cm
humidity
%
barometer
mb
20260901174621 28 333 4.8 9.7 0.00 0.05 0.00 37 1021.2
20260901173137 28 314 1.6 11.3 0.00 0.05 0.00 40 1021.4
20260901171628 27 319 4.8 11.3 0.00 0.05 0.00 43 1021.6
20260901170201 27 318 1.6 9.7 0.00 0.05 0.00 45 1021.2
20260901164634 26 9 3.2 9.7 0.00 0.05 0.00 45 1021.3
20260901163127 25 301 0.0 3.2 0.00 0.05 0.00 50 1021.3
20260901161621 24 312 0.0 3.2 0.00 0.05 0.00 54 1021.2
20260901160153 24 313 0.0 3.2 0.00 0.05 0.00 56 1021.1
20260901154628 23 270 0.0 4.8 0.00 0.05 0.00 55 1021.0
20260901153140 23 215 0.0 1.6 0.00 0.05 0.00 57 1020.9
20260901151653 23 284 0.0 1.6 0.00 0.05 0.00 60 1020.8
20260901150127 22 295 0.0 4.8 0.00 0.05 0.00 62 1020.8
20260901144659 22 265 1.6 8.0 0.00 0.05 0.00 60 1020.9
20260901143150 23 233 3.2 4.8 0.00 0.05 0.00 57 1020.7
20260901141625 22 156 0.0 3.2 0.00 0.05 0.00 61 1020.7
20260901140135 21 123 1.6 3.2 0.00 0.05 0.00 64 1020.5
20260901134630 20 184 0.0 0.0 0.00 0.05 0.00 70 1020.4
20260901133142 17 184 0.0 0.0 0.00 0.05 0.00 75 1020.3
20260901131653 17 184 0.0 0.0 0.00 0.05 0.00 75 1020.2
20260901130129 17 184 0.0 0.0 0.00 0.05 0.00 75 1020.1
20260901124700 17 184 0.0 0.0 0.00 0.05 0.00 75 1020.0
20260901123155 17 184 0.0 0.0 0.00 0.05 0.00 74 1019.7
20260901121624 17 126 0.0 0.0 0.00 0.05 0.00 73 1019.4
20260901120122 17 126 0.0 0.0 0.00 0.05 0.00 73 1019.3
20260901113130 18 126 0.0 0.0 0.00 0.05 0.00 72 1019.1
20260901111622 18 126 0.0 0.0 0.00 0.05 0.00 72 1019.0
20260901110134 18 126 0.0 0.0 0.00 0.05 0.00 72 1019.1
20260901104625 18 126 0.0 0.0 0.00 0.05 0.00 71 1019.1
20260901103122 18 126 0.0 0.0 0.00 0.05 0.00 71 1019.1
20260901101635 18 126 0.0 0.0 0.00 0.05 0.00 72 1019.2
20260901100130 18 130 0.0 4.8 0.00 0.05 0.00 71 1019.1
20260901094641 18 251 0.0 1.6 0.00 0.05 0.00 72 1019.1
20260901093137 18 249 0.0 0.0 0.00 0.05 0.00 72 1018.9
20260901091630 18 246 0.0 1.6 0.00 0.05 0.00 71 1018.8
20260901090141 20 283 0.0 0.0 0.00 0.05 0.00 69 1018.7
20260901084637 20 266 1.6 4.8 0.00 0.05 0.00 68 1018.9
20260901083129 21 301 0.0 0.0 0.00 0.05 0.00 65 1018.9
20260901081624 21 301 0.0 0.0 0.00 0.05 0.00 61 1019.1
20260901080136 21 301 0.0 0.0 0.00 0.05 0.00 64 1019.2
20260901074628 21 301 0.0 0.0 0.00 0.05 0.00 62 1019.0
20260901073142 22 301 0.0 0.0 0.00 0.05 0.00 59 1019.3
20260901071633 22 301 0.0 0.0 0.00 0.05 0.00 59 1019.4
20260901070130 22 301 0.0 0.0 0.00 0.05 0.00 57 1019.2
20260901064702 22 288 1.6 3.2 0.00 0.05 0.00 55 1019.3
20260901063133 23 245 0.0 0.0 0.00 0.05 0.00 52 1019.2
20260901060122 23 214 1.6 4.8 0.00 0.05 0.00 49 1019.4
20260901054637 24 83 6.4 19.3 0.00 0.05 0.05 45 1019.2
20260901053130 25 99 9.7 20.9 0.00 0.05 0.05 45 1019.4
20260901051646 23 119 0.0 1.6 0.03 0.05 0.05 52 1020.0
20260901050138 23 260 0.0 0.0 0.03 0.05 0.05 52 1019.8
20260901044629 24 233 0.0 9.7 0.03 0.05 0.05 50 1019.7
20260901043126 23 74 9.7 24.1 0.03 0.05 0.05 51 1019.2
20260901041636 23 99 19.3 29.0 0.00 0.03 0.03 52 1018.9
20260901040129 24 140 16.1 27.4 0.03 0.03 0.03 50 1019.1
20260901034702 24 131 19.3 32.2 0.03 0.03 0.03 50 1018.8
20260901033154 24 206 25.7 46.7 0.03 0.03 0.03 52 1018.5
20260901031628 30 227 19.3 29.0 0.00 0.00 0.00 32 1016.8
20260901030140 32 127 16.1 25.7 0.00 0.00 0.00 20 1015.6
20260901024635 31 96 11.3 16.1 0.00 0.00 0.00 24 1015.2
20260901023128 30 104 1.6 6.4 0.00 0.00 0.00 24 1015.0
20260901021625 31 149 1.6 6.4 0.00 0.00 0.00 23 1014.6
20260901020137 30 112 1.6 4.8 0.00 0.00 0.00 25 1014.6
20260901014648 30 349 0.0 1.6 0.00 0.00 0.00 22 1014.2
20260901013123 31 346 0.0 1.6 0.00 0.00 0.00 21 1014.1
20260901011635 32 341 0.0 1.6 0.00 0.00 0.00 20 1014.1
20260901010131 33 298 0.0 1.6 0.00 0.00 0.00 16 1014.2
20260901004622 35 233 3.2 9.7 0.00 0.00 0.00 13 1013.9
20260901003134 36 212 6.4 16.1 0.00 0.00 0.00 12 1014.0
20260901001630 35 237 8.0 14.5 0.00 0.00 0.00 13 1014.1
20260901000120 35 219 9.7 16.1 0.00 0.00 0.00 13 1014.1
20260831234636 35 242 6.4 14.5 0.00 0.00 0.00 13 1014.0
20260831233128 36 239 11.3 20.9 0.00 0.00 0.00 12 1013.8
20260831231623 36 237 14.5 25.7 0.00 0.00 0.00 12 1013.8
20260831230137 37 182 9.7 20.9 0.00 0.00 0.00 11 1013.9
20260831224628 37 227 6.4 12.9 0.00 0.00 0.00 12 1013.9
20260831223123 37 144 0.0 16.1 0.00 0.00 0.00 12 1014.1
20260831221634 37 203 14.5 20.9 0.00 0.00 0.00 12 1014.5
20260831220130 37 192 11.3 17.7 0.00 0.00 0.00 12 1014.6
20260831214642 37 229 0.0 9.7 0.00 0.00 0.00 12 1014.6
20260831213137 37 176 9.7 22.5 0.00 0.00 0.00 12 1014.9
20260831211628 36 248 4.8 14.5 0.00 0.00 0.00 15 1015.1
20260831210140 37 212 1.6 12.9 0.00 0.00 0.00 16 1015.5
20260831204635 36 357 6.4 12.9 0.00 0.00 0.00 18 1015.9
20260831203128 35 221 1.6 17.7 0.00 0.00 0.00 18 1016.2
20260831200134 35 270 3.2 8.0 0.00 0.00 0.00 20 1016.7
20260831194629 35 180 4.8 9.7 0.00 0.00 0.00 20 1017.0
20260831193121 35 321 1.6 9.7 0.00 0.00 0.00 21 1017.1
20260831191633 35 216 6.4 12.9 0.00 0.00 0.00 21 1017.3
20260831190129 34 141 4.8 12.9 0.00 0.00 0.00 21 1017.7
20260831184621 34 298 1.6 6.4 0.00 0.00 0.00 23 1017.9
20260831183137 34 259 1.6 6.4 0.00 0.00 0.00 24 1018.0
20260831181648 33 107 1.6 6.4 0.00 0.00 0.00 23 1018.3
20260831180139 33 250 0.0 9.7 0.00 0.00 0.00 24 1018.4